Theta_e
316 316 316 314 311 309 313 329 320 327 330 319 318 315 316 308 316 315 314 312 312 311 311 310 310 309 314 317 316 310 315 311 306 308 314 315 313 308 308 303 301 303 303 303
316 316 315 313 311 310 315 324 320 327 326 314 316 315 314 316 316 314 315 313 313 315 311 308 311 312 316 317 315 313 315 309 302 304 310 314 311 313 313 309 307 305 300 303
316 316 315 313 311 310 315 322 316 321 321 319 314 314 313 312 317 314 315 315 316 314 312 315 311 311 314 317 316 326 318 309 304 300 304 309 307 310 312 311 304 304 304 307
316 316 315 313 311 310 319 319 313 312 312 314 313 314 313 311 310 316 316 313 314 312 309 311 310 313 314 316 320 315 313 306 308 309 310 310 309 308 310 309 309 306 308 309
316 316 315 314 311 309 322 314 312 314 313 313 311 306 310 310 312 312 311 312 313 313 308 309 308 311 312 311 314 311 314 307 309 305 308 309 307 308 308 309 310 309 310 310
316 316 315 315 312 312 320 320 321 317 310 312 310 310 312 311 311 311 312 312 311 309 309 310 311 312 310 309 307 307 308 306 304 299 306 307 303 308 309 310 312 310 306 312
317 316 316 315 314 311 317 319 318 315 310 313 310 310 310 308 309 307 309 311 309 311 314 313 311 310 309 309 308 309 306 306 304 300 304 296 307 314 313 311 312 314 315 318
317 316 316 316 315 312 316 321 317 316 311 314 313 311 310 311 312 310 310 311 313 314 311 305 304 305 307 310 311 310 309 306 302 298 299 305 308 311 312 312 312 319 317 322
318 316 316 316 315 313 317 322 321 317 313 313 314 311 312 309 310 311 313 315 315 313 308 305 301 299 305 304 307 314 314 312 306 304 300 298 309 314 318 318 307 323 326 321
319 317 315 315 315 314 313 320 322 318 313 318 317 313 311 314 312 309 312 313 312 314 306 302 301 301 308 302 303 305 307 310 306 305 303 306 314 316 319 306 311 325 326 326
320 318 316 315 314 315 312 321 324 317 314 317 319 318 313 313 314 309 313 311 313 309 304 303 304 305 307 307 310 309 307 305 304 306 305 302 322 320 312 321 325 325 326 327
320 319 317 315 314 314 313 318 325 324 315 317 321 322 322 319 317 313 312 310 311 312 306 307 307 304 307 307 302 312 304 309 307 308 308 320 319 320 321 322 323 325 325 327
320 320 318 316 314 314 312 315 321 321 318 318 320 319 322 319 317 318 308 311 315 314 315 309 307 304 307 302 304 307 311 315 310 312 313 315 316 318 320 320 319 322 325 325
319 319 319 317 315 314 312 315 321 320 316 311 316 322 320 325 322 319 317 314 315 314 313 308 306 304 311 305 307 307 309 312 311 310 314 315 315 317 319 317 317 319 321 324
318 319 319 317 315 314 314 317 321 322 313 309 312 320 323 321 322 319 318 315 313 311 308 307 305 308 309 310 309 306 310 309 306 306 313 313 316 315 316 315 314 315 315 316
316 317 318 317 315 314 316 317 321 321 320 313 309 320 319 322 319 315 314 314 313 311 309 308 309 312 309 303 303 311 312 313 312 311 312 311 313 315 315 313 313 313 313 314
315 316 316 315 313 309 307 308 312 309 317 309 307 312 319 318 316 315 314 314 312 311 309 307 308 309 310 307 303 310 311 312 313 314 313 311 310 309 312 313 313 312 313 313
314 315 315 311 309 308 307 315 310 309 305 305 301 309 313 318 312 311 317 311 312 311 308 309 307 309 309 303 310 310 311 312 310 310 311 310 311 312 311 312 311 310 310 313
313 312 310 310 306 302 305 311 310 308 305 300 302 303 305 319 314 315 313 313 306 312 308 309 309 305 302 308 311 310 310 310 309 311 312 312 312 312 313 313 312 311 311 314
310 311 307 306 303 311 310 306 301 300 301 302 302 311 308 315 314 313 311 311 306 303 307 311 308 306 313 315 316 316 315 314 311 308 309 312 313 314 314 314 316 316 314 315
308 308 307 309 312 307 304 298 297 297 296 305 307 309 308 317 310 310 313 307 306 300 304 305 303 304 311 317 317 319 315 315 312 314 314 314 313 312 312 313 316 317 320 318
308 309 311 309 305 302 297 294 296 295 300 309 308 310 312 314 315 308 308 304 304 298 308 303 299 307 316 315 313 316 317 315 314 315 312 311 311 313 312 313 313 315 318 324
310 306 303 301 300 290 290 290 296 301 308 311 311 308 310 312 312 306 305 300 300 308 301 299 303 314 315 319 317 315 316 315 314 313 314 313 312 312 311 311 312 314 317 319
302 299 290 295 294 295 298 301 306 311 312 312 311 309 306 308 305 305 298 303 303 297 296 298 306 312 316 319 316 311 308 309 309 312 311 311 311 311 311 311 312 313 316 318
299 301 294 298 304 307 308 309 310 313 314 312 309 307 307 304 300 302 301 298 295 298 297 303 307 320 319 314 312 310 310 310 311 311 310 309 308 308 307 310 311 312 314 315
300 300 299 306 304 304 306 308 308 313 313 311 307 303 301 300 300 298 298 297 296 301 305 310 313 312 311 309 309 308 309 308 308 309 308 307 305 304 306 309 309 311 313 316
298 298 304 304 306 307 308 311 312 315 308 302 302 300 299 304 299 298 303 300 306 310 309 307 308 305 304 306 305 305 305 304 305 306 306 305 306 306 307 306 309 312 315 318
Wind_Speed
25 26 27 27 28 36 1 9 6 6 4 9 6 5 8 2 4 3 5 5 8 9 8 10 9 5 9 7 11 13 14 10 11 18 15 11 16 16 16 11 17 15 15 15
24 26 27 27 22 17 9 7 4 5 7 8 2 6 5 7 7 2 4 4 1 8 9 4 10 8 6 4 9 12 13 9 11 11 6 19 12 15 20 19 16 14 13 12
24 26 28 29 26 14 5 7 5 5 4 4 10 3 3 4 6 9 6 10 7 9 8 8 4 11 4 6 3 7 4 13 17 14 21 14 10 16 18 20 10 13 14 15
23 26 28 31 33 30 5 4 6 6 7 8 12 9 10 9 5 5 2 6 6 7 9 13 12 11 9 6 12 4 9 13 15 17 17 18 20 17 21 20 18 16 19 18
21 24 27 29 35 39 2 7 6 9 11 9 6 4 9 6 8 4 10 2 10 8 9 12 14 16 14 14 12 13 14 13 13 15 18 19 18 17 19 21 23 23 20 20
19 21 24 27 29 27 6 8 8 7 9 10 7 6 12 7 8 10 7 10 10 10 11 13 15 16 17 18 17 16 16 13 12 14 17 17 15 16 17 18 17 21 18 20
17 19 21 23 24 21 7 8 9 7 10 5 7 9 10 8 9 10 14 11 9 11 14 14 16 18 20 20 19 17 17 15 12 13 15 17 16 14 15 19 19 14 16 14
15 17 19 21 23 22 7 6 7 7 9 13 9 6 9 11 10 12 13 12 7 9 11 12 12 13 19 20 18 18 15 14 12 12 13 17 20 15 13 12 11 15 16 19
13 15 16 18 20 21 10 6 7 6 7 8 9 10 11 10 10 12 11 5 1 7 8 9 11 11 12 7 8 8 8 11 11 11 15 18 18 19 12 8 12 13 16 14
11 12 14 16 18 19 9 6 10 7 8 5 9 8 10 10 9 9 12 8 2 8 7 10 12 13 15 13 15 10 9 9 11 12 14 14 12 15 13 7 5 9 11 11
9 10 11 14 16 17 11 8 5 6 7 13 12 11 9 10 9 8 10 9 7 5 9 10 11 12 12 10 11 11 10 12 12 13 15 17 12 11 10 7 7 10 8 8
8 9 9 10 12 14 13 7 9 6 6 12 19 19 16 14 14 11 9 14 11 5 7 9 8 14 14 15 12 13 12 12 11 14 14 14 12 14 14 18 13 7 9 2
9 9 9 9 10 11 9 7 8 9 8 13 13 11 10 6 8 9 9 9 9 8 9 7 6 10 10 11 10 16 16 16 12 14 15 18 18 17 14 16 16 14 9 6
9 9 9 9 8 9 8 7 9 7 7 7 2 4 6 10 7 9 11 12 14 11 9 8 9 12 10 12 15 15 13 15 15 17 16 17 18 16 11 11 14 15 17 7
9 9 9 9 9 9 10 9 9 4 6 7 11 21 21 7 11 9 10 10 11 8 9 10 11 11 13 12 15 15 14 17 13 14 15 16 14 16 19 17 14 15 16 16
9 9 9 9 6 5 7 2 4 5 4 6 7 11 14 12 4 7 9 9 10 9 10 8 9 17 14 11 13 14 15 16 16 14 16 19 19 18 17 17 17 17 19 18
9 8 8 9 6 2 3 3 5 11 7 4 7 7 2 4 6 8 8 12 9 9 10 12 13 13 12 14 20 15 20 21 20 20 20 19 20 18 20 20 20 19 19 18
9 8 3 9 6 4 5 1 8 1 2 2 5 7 11 7 6 8 7 9 9 10 11 9 11 10 11 13 16 16 18 18 17 19 17 14 13 14 14 14 14 16 16 15
9 14 14 3 1 2 1 4 4 1 0 2 4 6 11 3 7 7 6 8 10 8 12 13 10 12 11 11 10 12 16 18 17 17 11 13 14 14 14 15 17 17 15 13
17 3 4 4 3 6 4 0 1 1 2 4 8 8 16 13 12 12 10 6 8 8 10 10 14 16 21 21 21 19 19 19 20 17 11 11 11 11 14 17 16 16 14 13
2 4 1 3 8 2 2 1 3 3 4 7 7 12 14 12 14 8 4 6 4 8 8 14 13 15 14 15 12 10 13 14 16 7 1 2 5 7 10 15 17 18 22 13
1 3 5 3 4 3 4 3 3 7 7 9 9 8 6 5 2 3 4 6 4 8 6 9 7 10 7 8 10 8 6 2 5 2 4 1 2 5 8 12 14 18 19 14
1 2 4 4 4 5 6 8 7 7 7 5 5 5 3 3 1 4 3 6 8 8 7 9 9 6 8 6 5 7 5 5 9 3 7 5 5 4 5 13 15 17 16 15
3 5 6 7 7 7 10 12 10 7 4 4 6 3 4 3 2 4 5 7 4 6 10 16 7 9 7 5 4 4 7 6 9 14 14 8 11 11 11 13 16 17 15 15
4 6 7 11 10 10 10 12 11 5 8 5 3 3 5 3 3 4 5 5 7 6 7 8 9 8 2 7 4 5 9 8 9 10 9 5 5 14 18 18 18 18 15 16
4 6 6 8 9 10 11 7 9 7 3 2 4 3 4 6 5 7 9 6 9 6 7 10 13 15 14 13 11 9 10 13 14 5 5 7 10 13 16 17 18 18 17 17
6 5 10 12 11 9 0 5 4 7 7 5 3 7 7 4 6 8 9 15 13 11 10 7 6 6 5 8 13 20 21 22 22 14 13 13 15 15 15 18 18 18 17 17
Wind_Direction
344 345 344 345 347 335 232 291 276 110 251 267 244 41 12 3 19 164 317 280 325 330 354 312 326 350 59 56 344 311 339 321 300 300 309 271 232 259 272 247 237 260 279 291
346 345 344 344 353 2 316 279 341 140 265 285 255 94 168 306 338 12 341 324 302 2 309 339 287 301 54 52 317 21 350 310 318 296 33 349 354 348 332 284 294 288 283 273
347 346 345 343 345 350 286 277 292 150 226 310 303 11 272 251 133 296 326 331 318 285 285 266 255 295 286 145 265 94 310 277 280 287 309 319 317 304 305 315 290 289 281 295
348 349 348 345 344 341 268 267 20 9 307 38 345 336 335 302 286 160 301 299 240 336 328 315 308 326 315 335 133 263 268 273 277 296 310 309 302 294 287 288 294 297 301 306
350 351 351 351 348 337 250 344 347 346 303 299 270 230 286 309 329 12 294 302 313 9 314 312 317 323 315 307 311 302 278 283 298 292 283 270 269 269 272 282 286 285 280 281
350 353 353 353 1 344 5 5 339 294 295 286 292 16 8 353 357 300 271 334 328 307 340 343 314 301 292 285 282 280 287 288 291 288 294 297 286 282 274 281 257 264 275 279
350 352 353 353 358 10 301 9 310 286 297 290 309 359 329 308 313 306 309 318 295 302 332 314 285 270 260 253 254 258 262 262 269 272 280 274 277 288 309 304 297 288 295 342
346 349 351 352 351 357 317 356 348 326 307 319 318 318 343 309 287 253 254 265 310 328 294 293 293 300 274 236 237 228 230 252 261 268 267 276 270 267 281 343 328 331 341 45
337 343 348 350 349 355 327 357 347 312 304 38 358 321 302 285 293 296 273 148 203 286 292 285 275 275 298 305 320 251 238 233 238 247 266 278 298 310 332 349 295 15 41 72
324 332 340 346 347 349 331 303 9 302 299 277 1 323 325 314 325 302 302 333 284 280 268 271 269 278 291 284 282 258 275 235 255 275 265 262 266 286 314 275 355 2 35 40
306 316 328 337 343 346 347 305 39 350 310 297 302 333 306 302 293 281 313 321 257 256 263 264 274 276 280 293 276 292 270 276 275 270 261 267 16 335 312 359 343 360 8 46
290 294 307 320 332 339 338 295 346 340 269 289 311 286 272 267 273 287 288 290 304 316 322 322 332 315 308 301 283 278 261 257 272 279 287 304 321 328 340 339 333 311 316 37
289 277 280 293 312 327 339 308 311 323 281 284 258 245 177 217 230 247 268 270 318 318 331 327 300 276 292 282 286 305 302 303 298 295 287 289 299 311 321 311 320 324 302 1
286 271 264 270 285 302 318 306 316 301 295 279 50 76 255 275 229 253 260 274 289 288 282 270 273 276 293 284 296 295 295 308 298 294 294 297 289 287 299 334 336 327 341 300
289 276 257 251 268 289 283 270 270 299 299 319 309 303 279 316 208 235 241 253 265 270 263 249 253 261 274 275 276 266 272 274 273 282 300 299 301 305 310 307 302 302 303 303
307 291 263 229 240 305 288 251 138 7 341 294 302 334 291 280 208 253 262 266 261 248 259 262 259 264 262 268 267 277 279 284 293 296 313 307 308 301 281 286 290 294 297 295
308 292 277 201 181 229 233 306 358 344 324 293 295 290 100 199 233 252 248 241 240 247 264 253 259 259 266 272 269 271 276 282 286 286 284 279 283 288 296 299 292 291 283 289
298 297 226 123 102 310 289 312 242 261 285 298 268 271 281 164 250 271 250 240 241 233 245 259 265 270 264 260 259 273 271 271 282 278 272 284 293 294 294 297 299 296 295 297
304 126 117 103 111 206 305 62 81 59 134 225 260 265 291 204 255 278 273 286 267 257 257 253 247 237 234 252 249 291 304 299 285 281 290 304 297 292 294 292 288 285 279 287
141 149 179 205 202 130 171 166 78 163 242 221 250 243 252 271 282 282 286 264 255 259 249 265 238 248 252 255 254 259 269 267 268 270 272 298 323 329 329 323 326 312 285 277
233 197 160 68 136 178 217 174 245 175 228 220 236 237 254 251 251 272 259 271 300 280 273 256 259 264 262 259 281 300 282 268 258 247 332 334 335 319 322 313 311 312 311 295
167 97 115 145 209 193 214 196 192 229 235 209 223 241 216 257 75 231 262 274 235 250 274 278 255 269 351 319 308 9 35 15 283 284 76 64 59 28 329 307 310 310 314 329
113 225 173 195 162 196 204 188 211 225 199 237 183 200 220 138 266 250 265 256 246 289 253 254 266 302 290 229 174 132 71 341 277 256 146 237 306 307 321 310 306 304 311 330
204 192 212 214 184 223 203 211 216 215 250 217 201 164 213 178 171 283 234 236 250 255 256 266 312 339 330 156 129 106 182 215 8 347 354 347 333 300 318 307 309 303 303 311
216 215 230 206 233 227 201 234 262 239 247 186 195 106 247 103 237 221 260 261 247 247 253 283 294 331 341 105 74 331 319 276 258 237 252 304 314 303 303 297 296 293 295 292
239 229 258 245 218 235 247 245 255 243 202 116 65 140 230 216 206 219 232 233 231 265 321 325 36 41 39 25 5 333 307 295 292 275 253 262 270 278 277 283 284 277 276 277
228 220 238 277 299 286 9 338 337 167 163 190 125 217 206 243 241 245 239 249 270 281 341 2 79 59 334 296 285 274 269 262 247 243 256 258 258 271 270 270 272 269 269 273